Location: Appingedam
(53.3222°N, 6.8488°E)
Time: 20:59:54
(UTC+00:00)

USA 290 - Pass Details

Date: 15 May 2026
Orbit: 396 x 415 km, 73.6° (Epoch: 30 October)

Event Time Altitude Azimuth Distance (km) Brightness Sun altitude
Exits shadow 21:18:07 17° 187° (S) 1,103 3.9 -12.3°
Maximum altitude 21:20:22 54° 112° (ESE) 483 2.2 -12.5°
Drops below altitude 10° 21:23:27 10° 34° (NE) 1,436 5.3 -12.7°
Sets 21:25:30 0° 30° (NNE) 2,296 6.4 -12.9°
